Regional Weather Roundup
Issued by NWS

Home | Current Version | Previous Version | Graphics & Text | Print | Product List | Glossary On
Versions: 1 2 3 4 5 6 7 8 9 10 11 12 13 14 15 16 17 18 19 20 21 22 23 24 25 26 27 28 29 30 31 32 33 34 35 36 37 38 39 40 41 42 43 44 45 46 47 48 49 50
000
ASUS45 KBOU 200407
RWRCO

WEATHER ROUNDUP FOR COLORADO
NATIONAL WEATHER SERVICE DENVER/BOULDER CO
1000 PM MDT SUN APR 19 2015

NOTE: "FAIR" INDICATES FEW OR NO CLOUDS BELOW 12000 FEET WITH NO
SIGNIFICANT WEATHER AND/OR OBSTRUCTIONS TO VISIBILITY.

COZ001>005-013-030-031-200500-
...NORTHWEST COLORADO...

CITY           SKY/WX    TMP DP  RH WIND       PRES   REMARKS
CRAIG          PTCLDY    36  28  73 NE3       30.02S
HAYDEN         PTCLDY    36  25  64 E3        30.02S
MEEKER         CLOUDY    41  35  79 NE5       30.03S
MOUNT WERNER   NOT AVBL
STEAMBOAT SPGS PTCLDY    34  24  65 E7        30.03S WCI  28
WALDEN         PTCLDY    28  23  80 E7        30.05S WCI  21
$$

COZ006>008-011-200500-
...WEST CENTRAL VALLEYS...

CITY           SKY/WX    TMP DP  RH WIND       PRES   REMARKS
GRAND JUNCTION CLOUDY    48  43  82 E8        30.02R
MONTROSE       CLOUDY    48  38  68 NE6       30.05S
EAGLE          MOCLDY    41  36  81 E3        30.07R
RIFLE          CLOUDY    48  35  60 N3        30.02R
DELTA          CLOUDY    49  40  69 CALM      30.03S
NUCLA          CLOUDY    45  36  70 E6        30.07S
$$

COZ017>023-064>068-200500-
...SOUTHWEST COLORADO...

CITY           SKY/WX    TMP DP  RH WIND       PRES   REMARKS
DURANGO        PTCLDY    46  20  35 NW5       30.02R
CORTEZ         CLEAR     42  29  59 SE3       30.04R
PAGOSA SPRINGS PTCLDY    36  22  56 CALM      30.05R
TELLURIDE      CLOUDY    37  28  70 SW5       30.14S
WOLF CREEK PAS CLOUDY    27  10  50 N7        30.20R WCI  19
$$

COZ009-010-012-014-032>034-037-058>063-200500-
...CENTRAL COLORADO...

CITY           SKY/WX    TMP DP  RH WIND       PRES   REMARKS
ASPEN          CLOUDY    36  28  73 SW6       30.06R
BUENA VISTA    PTCLDY    34  24  69 NW9       30.05S WCI  26
COPPER MTN     CLOUDY    25  19  80 W8        30.12S WCI  16
BERTHOUD PASS  CLOUDY    14   7  73 NW23G31   30.10S WCI  -5
COTTONWOOD PAS PTCLDY    34  18  51 W12       30.09S WCI  25
GUNNISON       PTCLDY    37  23  56 CALM      30.09S
KREMMLING      MOCLDY    34  28  80 S6        30.07S WCI  29
LEADVILLE      CLOUDY    25  23  92 N5        30.08R WCI  19
MONARCH PASS   PTCLDY    21  18  86 MISG      30.23S
SALIDA         PTCLDY    40  29  63 CALM      30.13R
SUNLIGHT       LGT SNOW  30  28  93 CALM      30.16S
WILKERSON PASS FLURRIES  27  23  86 CALM      30.13R
$$

COZ069>075-200500-
...SAN LUIS VALLEY/SANGRE DE CRISTO MOUNTAINS...

CITY           SKY/WX    TMP DP  RH WIND       PRES   REMARKS
ALAMOSA        MOCLDY    43  20  39 CALM      30.05R
LA VETA PASS   CLOUDY    27  25  93 NE9       30.12S FOG     WCI  17
SAGUACHE       PTCLDY    39  19  45 NW8       30.06R
$$

COZ035-036-038>040-200500-
...NORTHERN COLORADO FRONT RANGE...

CITY           SKY/WX    TMP DP  RH WIND       PRES   REMARKS
DENVER INTL AP MOCLDY    39  23  52 CALM      30.06R
DMNS CITY PARK   N/A     41  23  48 E2        30.06F
AURORA         CLOUDY    39  23  53 CALM      30.07S
FRONT RANGE AP NOT AVBL
ERIE MUNI ARPT MOCLDY    41  26  55 CALM      30.07R
BOULDER MUN AP MOCLDY    43  25  49 SE6       30.06R
CENTENNIAL     MOCLDY    39  23  52 CALM      30.07S
BROOMFIELD     MOCLDY    41  25  52 E5        30.07R
FORT COLLINS   PTCLDY    41  25  52 NE9       30.06R
LONGMONT       PTCLDY    41  28  59 S3        30.07S
$$

COZ041-046-047-076>085-087-088-200500-
...PIKES PEAK/PALMER DIVIDE AND SOUTHERN FOOTHILLS...

CITY           SKY/WX    TMP DP  RH WIND       PRES   REMARKS
COLO. SPRINGS  CLOUDY    39  21  48 N9        30.09R
A. F. ACADEMY  MOCLDY    37  21  52 NW7       30.08S
ELLICOTT       CLOUDY   N/A N/A N/A NE8       30.06S
FALCON         CLOUDY    35  21  57 N9        30.08S WCI  27
FORT CARSON    MOCLDY    40  26  58 NW12      30.08R
LIMON          PTCLDY    30  26  85 N6        30.06R WCI  24
MONUMENT HILL  PTCLDY    32  23  69 NW5       30.07S WCI  27
TRINIDAD       CLOUDY    45  27  49 VRB5      30.08R
$$

COZ042>045-048>051-090-091-200500-
...NORTHEAST COLORADO...

CITY           SKY/WX    TMP DP  RH WIND       PRES   REMARKS
GREELEY ARPT   PTCLDY    37  25  60 CALM      30.05S
AKRON          CLEAR     34  22  61 N13       30.00F WCI  25
BURLINGTON     CLEAR     32  26  78 W8        30.03R WCI  25
WRAY           CLEAR     36  26  66 NW9       30.01S
STERLING       CLEAR     32  27  80 NW8       30.03R WCI  25
HOLYOKE        CLEAR     41  23  48 NW9       30.01R
FORT MORGAN    CLEAR     36  24  61 W3        30.04S
$$

COZ086-089-092>099-200500-
...SOUTHEAST COLORADO...

CITY           SKY/WX    TMP DP  RH WIND       PRES   REMARKS
PUEBLO         CLOUDY    47  23  38 NE10      30.07R
LA JUNTA       CLOUDY    48  30  49 NE9       30.07R
LAMAR          MOCLDY    40  33  76 CALM      30.04R
SPRINGFIELD      N/A     34  28  79 N8        30.06R WCI  27
$$



USA.gov is the U.S. government's official web portal to all federal, state and local government web resources and services.